FW9947 Weather Reports


Display with metric or nautical units.
time (UTC)temp
F
wind
direction
speed
MPH
gust
MPH
rain 1hr
in
rain 24hr
in
rain mn
in
humidity
%
barometer
mb
20260509173636 58 5 0.0 0.0 0.00 0.00 0.00 67 1026.7
20260509173132 57 0 0.0 0.0 0.00 0.00 0.00 68 1026.7
20260509172629 58 356 0.0 0.0 0.00 0.00 0.00 67 1027.1
20260509172125 59 356 0.0 0.0 0.00 0.00 0.00 64 1027.0
20260509171621 59 347 0.0 0.0 0.00 0.00 0.00 64 1026.7
20260509171117 58 346 0.0 0.0 0.00 0.00 0.00 65 1026.6
20260509170614 58 346 0.0 0.0 0.00 0.00 0.00 65 1026.8
20260509170110 58 346 0.0 0.0 0.00 0.00 0.00 66 1026.6
20260509165608 58 343 0.0 1.0 0.00 0.00 0.00 67 1026.7
20260509165104 59 342 0.0 0.0 0.00 0.00 0.00 65 1026.7
20260509164600 59 342 0.0 0.0 0.00 0.00 0.00 63 1026.7
20260509164056 60 341 0.0 0.0 0.00 0.00 0.00 62 1026.6
20260509163554 61 340 0.0 1.0 0.00 0.00 0.00 61 1026.6
20260509163054 61 340 1.0 1.0 0.00 0.00 0.00 60 1026.5
20260509162552 61 341 1.0 1.0 0.00 0.00 0.00 60 1026.5
20260509162048 61 341 1.0 1.0 0.00 0.00 0.00 61 1026.2
20260509161544 61 341 1.0 1.0 0.00 0.00 0.00 61 1026.4
20260509161039 61 343 0.0 0.0 0.00 0.00 0.00 61 1026.4
20260509160535 61 342 1.0 2.0 0.00 0.00 0.00 61 1026.2
20260509160031 60 343 0.0 0.0 0.00 0.00 0.00 62 1026.3
20260509155527 60 343 0.0 0.0 0.00 0.00 0.00 62 1026.3
20260509155023 61 343 0.0 0.0 0.00 0.00 0.00 62 1026.4
20260509154520 61 338 0.0 1.0 0.00 0.00 0.00 61 1026.4
20260509154018 61 323 1.0 1.0 0.00 0.00 0.00 60 1026.2
20260509153514 62 342 0.0 0.0 0.00 0.00 0.00 60 1026.2
20260509153011 62 341 2.0 2.0 0.00 0.00 0.00 60 1026.2
20260509152507 62 336 2.0 2.0 0.00 0.00 0.00 59 1025.9
20260509152004 63 332 2.0 2.0 0.00 0.00 0.00 58 1026.3
20260509151500 63 340 2.0 3.0 0.00 0.00 0.00 58 1026.2
20260509150959 63 351 3.0 5.0 0.00 0.00 0.00 57 1026.2
20260509150455 64 1 3.0 5.0 0.00 0.00 0.00 56 1026.0
20260509145953 64 340 5.0 6.0 0.00 0.00 0.00 56 1026.0
20260509145449 64 1 3.0 3.0 0.00 0.00 0.00 55 1026.0
20260509144944 65 0 4.0 5.0 0.00 0.00 0.00 55 1026.0
20260509144441 65 342 3.0 5.0 0.00 0.00 0.00 54 1025.9
20260509143938 66 350 5.0 7.0 0.00 0.00 0.00 53 1026.2
20260509143435 66 16 4.0 5.0 0.00 0.00 0.00 52 1026.0
20260509142932 67 328 4.0 5.0 0.00 0.00 0.00 52 1026.0
20260509142428 67 5 4.0 6.0 0.00 0.00 0.00 51 1025.9
20260509141924 67 1 7.0 8.0 0.00 0.00 0.00 51 1026.0
20260509141421 66 24 4.0 5.0 0.00 0.00 0.00 52 1025.9
20260509140918 67 311 3.0 5.0 0.00 0.00 0.00 52 1025.9
20260509140414 66 347 4.0 5.0 0.00 0.00 0.00 52 1025.9
20260509135913 67 315 4.0 6.0 0.00 0.00 0.00 51 1025.8
20260509135410 67 323 4.0 5.0 0.00 0.00 0.00 52 1025.8
20260509134907 67 336 3.0 5.0 0.00 0.00 0.00 52 1026.0
20260509134404 68 306 3.0 3.0 0.00 0.00 0.00 50 1026.0
20260509133901 68 300 8.0 10.0 0.00 0.00 0.00 49 1026.0
20260509133358 67 339 5.0 7.0 0.00 0.00 0.00 50 1026.0
20260509132856 68 323 5.0 8.0 0.00 0.00 0.00 49 1025.9
20260509132354 68 327 4.0 6.0 0.00 0.00 0.00 49 1025.9
20260509131851 68 322 2.0 3.0 0.00 0.00 0.00 50 1025.9
20260509131348 68 317 5.0 7.0 0.00 0.00 0.00 50 1025.9
20260509130845 68 332 7.0 8.0 0.00 0.00 0.00 50 1026.3
20260509130340 69 339 3.0 3.0 0.00 0.00 0.00 49 1026.0
20260509125837 69 322 4.0 8.0 0.00 0.00 0.00 49 1026.0
20260509125333 69 341 3.0 3.0 0.00 0.00 0.00 49 1026.3
20260509124829 69 342 4.0 5.0 0.00 0.00 0.00 49 1026.0
20260509124327 68 336 8.0 10.0 0.00 0.00 0.00 49 1026.3
20260509123825 68 289 5.0 6.0 0.00 0.00 0.00 50 1026.4
20260509123322 68 321 5.0 6.0 0.00 0.00 0.00 50 1026.4
20260509122817 68 342 5.0 6.0 0.00 0.00 0.00 49 1026.2
20260509122314 67 352 6.0 8.0 0.00 0.00 0.00 50 1026.3
20260509121811 67 352 7.0 9.0 0.00 0.00 0.00 50 1026.5
20260509121308 68 352 8.0 10.0 0.00 0.00 0.00 49 1026.3
20260509120807 67 340 9.0 11.0 0.00 0.00 0.00 50 1026.4
20260509120304 68 350 7.0 8.0 0.00 0.00 0.00 49 1026.5
20260509115802 68 344 5.0 7.0 0.00 0.00 0.00 49 1026.5
20260509115259 68 347 7.0 8.0 0.00 0.00 0.00 49 1026.5
20260509114756 68 334 2.0 2.0 0.00 0.00 0.00 50 1026.7
20260509114255 67 351 7.0 8.0 0.00 0.00 0.00 49 1026.7
20260509113754 67 342 7.0 9.0 0.00 0.00 0.00 50 1026.8
20260509113250 67 334 6.0 8.0 0.00 0.00 0.00 50 1026.8
20260509112747 68 346 5.0 7.0 0.00 0.00 0.00 49 1027.0
20260509112244 67 352 6.0 8.0 0.00 0.00 0.00 50 1026.7
20260509111742 67 323 5.0 7.0 0.00 0.00 0.00 50 1027.0
20260509111238 66 318 5.0 8.0 0.00 0.00 0.00 50 1027.0
20260509110735 66 333 6.0 8.0 0.00 0.00 0.00 51 1026.8
20260509110232 67 331 4.0 5.0 0.00 0.00 0.00 50 1027.2
20260509105730 67 330 4.0 5.0 0.00 0.00 0.00 50 1027.3
20260509105228 66 328 8.0 10.0 0.00 0.00 0.00 51 1027.4
20260509104724 66 306 3.0 5.0 0.00 0.00 0.00 51 1027.3
20260509104221 66 306 2.0 2.0 0.00 0.00 0.00 51 1027.5
20260509103720 66 310 5.0 7.0 0.00 0.00 0.00 50 1027.5
20260509103216 66 322 9.0 11.0 0.00 0.00 0.00 50 1027.7
20260509102715 66 331 9.0 14.0 0.00 0.00 0.00 49 1027.8
20260509102211 66 329 5.0 6.0 0.00 0.00 0.00 50 1027.9
20260509101707 65 308 4.0 6.0 0.00 0.00 0.00 51 1028.0
20260509101204 65 312 6.0 7.0 0.00 0.00 0.00 50 1028.1
20260509100701 65 342 3.0 5.0 0.00 0.00 0.00 51 1028.2
20260509100158 64 345 3.0 5.0 0.00 0.00 0.00 51 1028.3
20260509095655 65 338 5.0 7.0 0.00 0.00 0.00 52 1028.6
20260509095153 64 339 3.0 5.0 0.00 0.00 0.00 53 1028.7
20260509094649 64 344 5.0 7.0 0.00 0.00 0.00 54 1028.9
20260509094146 64 333 7.0 9.0 0.00 0.00 0.00 55 1028.9
20260509093644 62 329 2.0 2.0 0.00 0.00 0.00 57 1028.9
20260509093141 63 319 4.0 6.0 0.00 0.00 0.00 56 1028.9
20260509092639 63 340 5.0 9.0 0.00 0.00 0.00 56 1029.0
20260509092137 64 7 7.0 8.0 0.00 0.00 0.00 56 1029.2
20260509091635 63 12 6.0 8.0 0.00 0.00 0.00 58 1029.3
20260509091131 62 14 3.0 5.0 0.00 0.00 0.00 60 1029.3
20260509090629 62 16 5.0 6.0 0.00 0.00 0.00 62 1029.0
20260509090126 62 25 1.0 2.0 0.00 0.00 0.00 62 1029.5
20260509085623 60 26 1.0 2.0 0.00 0.00 0.00 64 1029.4
20260509085119 61 75 4.0 7.0 0.00 0.00 0.00 62 1029.5
20260509084617 60 78 2.0 2.0 0.00 0.00 0.00 64 1029.6
20260509084113 60 78 5.0 6.0 0.00 0.00 0.00 61 1029.6
20260509083611 61 81 4.0 5.0 0.00 0.00 0.00 62 1029.4
20260509083107 61 82 2.0 2.0 0.00 0.00 0.00 61 1030.0
20260509082605 60 84 2.0 2.0 0.00 0.00 0.00 61 1029.9
20260509082101 59 84 1.0 2.0 0.00 0.00 0.00 62 1030.0
20260509081559 59 89 5.0 6.0 0.00 0.00 0.00 63 1029.9
20260509081055 58 90 0.0 1.0 0.00 0.00 0.00 64 1030.1
20260509080554 58 91 3.0 3.0 0.00 0.00 0.00 64 1030.0
20260509080051 57 93 2.0 2.0 0.00 0.00 0.00 65 1030.1
20260509075549 58 96 5.0 6.0 0.00 0.00 0.00 62 1030.0
20260509075047 57 98 1.0 2.0 0.00 0.00 0.00 65 1030.1
20260509074543 58 99 6.0 7.0 0.00 0.00 0.00 64 1030.1
20260509074040 58 100 1.0 1.0 0.00 0.00 0.00 65 1030.2
20260509073536 57 100 3.0 3.0 0.00 0.00 0.00 64 1030.2
20260509073033 57 100 4.0 5.0 0.00 0.00 0.00 65 1030.1
20260509072529 57 101 3.0 3.0 0.00 0.00 0.00 65 1030.1
20260509072026 56 101 1.0 2.0 0.00 0.00 0.00 66 1029.9
20260509071523 55 102 1.0 2.0 0.00 0.00 0.00 68 1029.7
20260509071020 56 102 3.0 3.0 0.00 0.00 0.00 67 1030.0
20260509070518 56 102 3.0 3.0 0.00 0.00 0.00 66 1029.9
20260509070014 55 102 2.0 2.0 0.00 0.00 0.00 66 1029.7
20260509065509 55 102 2.0 2.0 0.00 0.00 0.00 67 1029.6
20260509065006 54 103 2.0 2.0 0.00 0.00 0.00 68 1029.5
20260509064503 55 102 0.0 0.0 0.00 0.00 0.00 68 1029.5
20260509064001 56 103 0.0 0.0 0.00 0.00 0.00 68 1029.4
20260509063456 53 103 0.0 0.0 0.00 0.00 0.00 72 1029.3
20260509062954 53 103 1.0 1.0 0.00 0.00 0.00 74 1029.3
20260509062451 52 103 1.0 1.0 0.00 0.00 0.00 74 1029.0
20260509061949 52 103 1.0 2.0 0.00 0.00 0.00 76 1028.9
20260509061446 49 103 1.0 1.0 0.00 0.00 0.00 79 1029.0
20260509060943 49 103 0.0 1.0 0.00 0.00 0.00 82 1029.0
20260509060440 48 103 0.0 1.0 0.00 0.00 0.00 82 1029.0
20260509055935 48 103 0.0 0.0 0.00 0.00 0.00 82 1029.0
20260509055431 48 112 0.0 0.0 0.00 0.00 0.00 83 1028.9
20260509054928 47 114 1.0 1.0 0.00 0.00 0.00 82 1028.7
20260509054424 47 122 1.0 1.0 0.00 0.00 0.00 83 1028.7
20260509053923 47 117 1.0 1.0 0.00 0.00 0.00 82 1028.8
20260509053420 46 123 1.0 2.0 0.00 0.00 0.00 83 1028.5
20260509052918 45 124 1.0 1.0 0.00 0.00 0.00 84 1028.7
20260509052415 45 116 1.0 2.0 0.00 0.00 0.00 85 1028.5
20260509051913 45 110 1.0 1.0 0.00 0.00 0.00 84 1028.7
20260509051411 45 113 1.0 1.0 0.00 0.00 0.00 84 1028.5
20260509050907 44 121 1.0 1.0 0.00 0.00 0.00 84 1028.5
20260509050404 44 125 1.0 1.0 0.00 0.00 0.00 86 1028.7
20260509045901 43 122 2.0 2.0 0.00 0.00 0.00 86 1028.5
20260509045357 43 133 2.0 2.0 0.00 0.00 0.00 87 1028.5
20260509044855 43 127 2.0 2.0 0.00 0.00 0.00 87 1028.5
20260509044353 43 142 1.0 2.0 0.00 0.00 0.00 86 1028.2
20260509043849 44 133 2.0 2.0 0.00 0.00 0.00 85 1028.3
20260509043345 43 123 1.0 2.0 0.00 0.00 0.00 85 1028.0
20260509042841 44 130 2.0 2.0 0.00 0.00 0.00 84 1028.5
20260509042337 44 119 1.0 2.0 0.00 0.00 0.00 84 1028.1
20260509041834 44 125 1.0 1.0 0.00 0.00 0.00 83 1028.1
20260509041331 44 123 1.0 1.0 0.00 0.00 0.00 83 1028.1
20260509040829 44 131 2.0 2.0 0.00 0.00 0.00 84 1027.9
20260509040327 44 114 1.0 2.0 0.00 0.00 0.00 85 1027.9
20260509035823 44 123 1.0 2.0 0.00 0.00 0.00 85 1028.1
20260509035321 44 116 1.0 1.0 0.00 0.00 0.00 85 1028.1
20260509034817 44 126 2.0 2.0 0.00 0.00 0.00 84 1027.9
20260509034315 44 126 2.0 2.0 0.00 0.00 0.00 83 1027.9
20260509033811 44 123 2.0 2.0 0.00 0.00 0.00 84 1027.9
20260509033309 44 136 2.0 2.0 0.00 0.00 0.00 84 1027.9
20260509032805 44 142 3.0 3.0 0.00 0.00 0.00 86 1028.1
20260509032306 43 146 2.0 2.0 0.00 0.00 0.00 88 1028.0
20260509031800 42 129 3.0 3.0 0.00 0.00 0.00 90 1028.0
20260509031257 41 139 2.0 3.0 0.00 0.00 0.00 91 1027.7
20260509030755 41 135 2.0 2.0 0.00 0.00 0.00 92 1028.0
20260509030253 41 127 2.0 2.0 0.00 0.00 0.00 92 1027.8
20260509025749 41 108 1.0 2.0 0.00 0.00 0.00 92 1027.8
20260509025244 41 126 2.0 2.0 0.00 0.00 0.00 91 1027.8
20260509024740 41 102 1.0 1.0 0.00 0.00 0.00 90 1027.8
20260509024236 42 103 1.0 1.0 0.00 0.00 0.00 90 1027.7
20260509023734 42 110 1.0 1.0 0.00 0.00 0.00 90 1027.7
20260509023231 42 124 3.0 3.0 0.00 0.00 0.00 91 1027.7
20260509022727 41 137 2.0 2.0 0.00 0.00 0.00 91 1027.8
20260509022225 41 117 2.0 2.0 0.00 0.00 0.00 91 1027.5
20260509021721 41 130 2.0 2.0 0.00 0.00 0.00 91 1027.8
20260509021219 42 121 1.0 1.0 0.00 0.00 0.00 89 1027.9
20260509020717 43 121 2.0 2.0 0.00 0.00 0.00 88 1027.9
20260509020213 44 116 2.0 2.0 0.00 0.00 0.00 85 1027.8
20260509015712 44 117 1.0 2.0 0.00 0.00 0.00 84 1028.0
20260509015210 44 134 2.0 2.0 0.00 0.00 0.00 85 1027.9
20260509014706 44 131 2.0 2.0 0.00 0.00 0.00 86 1027.9
20260509014203 44 135 2.0 2.0 0.00 0.00 0.00 86 1027.8
20260509013659 44 126 2.0 2.0 0.00 0.00 0.00 85 1027.9
20260509013155 44 134 2.0 2.0 0.00 0.00 0.00 85 1027.8
20260509012652 44 126 2.0 2.0 0.00 0.00 0.00 86 1027.7
20260509012149 44 125 2.0 2.0 0.00 0.00 0.00 86 1028.1
20260509011647 44 134 2.0 2.0 0.00 0.00 0.00 86 1027.9
20260509011144 44 154 2.0 2.0 0.00 0.00 0.00 87 1028.0
20260509010641 45 128 2.0 2.0 0.00 0.00 0.00 85 1027.9
20260509010137 45 125 2.0 2.0 0.00 0.00 0.00 84 1028.1
20260509005635 45 132 2.0 2.0 0.00 0.00 0.00 85 1028.1
20260509005131 45 126 2.0 2.0 0.00 0.00 0.00 86 1027.9
20260509004627 44 137 2.0 2.0 0.00 0.00 0.00 87 1027.9
20260509004124 44 130 2.0 2.0 0.00 0.00 0.00 86 1027.9
20260509003623 44 124 1.0 2.0 0.00 0.00 0.00 87 1028.0
20260509003120 44 118 1.0 2.0 0.00 0.00 0.00 88 1028.1
20260509002617 43 130 2.0 2.0 0.00 0.00 0.00 88 1028.0
20260509002114 44 124 1.0 2.0 0.00 0.00 0.00 86 1028.2
20260509001612 44 127 2.0 2.0 0.00 0.00 0.00 86 1028.1
20260509001107 44 127 3.0 3.0 0.00 0.00 0.00 87 1028.2
20260509000606 44 117 2.0 2.0 0.00 0.00 0.00 86 1028.0
20260508235600 45 116 2.0 2.0 0.00 0.00 0.00 86 1028.0
20260508235056 44 131 3.0 3.0 0.00 0.00 0.00 87 1028.1
20260508234553 44 134 3.0 3.0 0.00 0.00 0.00 89 1028.0
20260508234050 44 131 0.0 0.0 0.00 0.00 0.00 90 1028.1
20260508233549 44 132 0.0 0.0 0.00 0.00 0.00 90 1028.1
20260508233046 44 129 0.0 0.0 0.00 0.00 0.00 91 1028.1
20260508232543 44 122 0.0 0.0 0.00 0.00 0.00 91 1028.1
20260508232040 44 119 0.0 0.0 0.00 0.00 0.00 92 1027.8
20260508231538 43 115 0.0 0.0 0.00 0.00 0.00 92 1028.1
20260508231035 43 107 0.0 0.0 0.00 0.00 0.00 92 1028.1
20260508230531 43 108 0.0 0.0 0.00 0.00 0.00 92 1028.1
20260508230028 43 110 0.0 1.0 0.00 0.00 0.00 92 1027.9
20260508225525 43 125 2.0 2.0 0.00 0.00 0.00 91 1027.9
20260508225022 43 123 2.0 2.0 0.00 0.00 0.00 91 1028.1
20260508224520 43 122 1.0 1.0 0.00 0.00 0.00 91 1028.1
20260508224017 43 119 2.0 2.0 0.00 0.00 0.00 90 1028.0
20260508223515 44 138 2.0 2.0 0.00 0.00 0.00 89 1028.2
20260508223012 44 115 1.0 1.0 0.00 0.00 0.00 87 1027.8
20260508222509 46 115 1.0 2.0 0.00 0.00 0.00 84 1028.0
20260508222005 47 129 1.0 2.0 0.00 0.00 0.00 81 1027.8
20260508221502 48 129 1.0 1.0 0.00 0.00 0.00 81 1027.8
20260508220958 48 130 1.0 2.0 0.00 0.00 0.00 80 1027.7
20260508220454 48 124 2.0 2.0 0.00 0.00 0.00 79 1027.7
20260508215950 48 117 1.0 1.0 0.00 0.00 0.00 79 1027.9
20260508215448 49 126 1.0 2.0 0.00 0.00 0.00 78 1027.8
20260508214944 48 122 1.0 1.0 0.00 0.00 0.00 79 1028.0
20260508214442 48 132 2.0 2.0 0.00 0.00 0.00 79 1028.0
20260508213938 49 150 2.0 2.0 0.00 0.00 0.00 79 1028.0
20260508213436 48 143 2.0 2.0 0.00 0.00 0.00 79 1028.1
20260508212931 48 138 2.0 2.0 0.00 0.00 0.00 79 1028.1
20260508212428 48 124 1.0 2.0 0.00 0.00 0.00 79 1028.1
20260508211924 48 127 1.0 2.0 0.00 0.00 0.00 80 1028.0
20260508211420 48 132 2.0 2.0 0.00 0.00 0.00 79 1028.5
20260508210917 48 137 1.0 2.0 0.00 0.00 0.00 79 1028.3
20260508210414 48 138 2.0 2.0 0.00 0.00 0.00 79 1028.0
20260508205910 49 130 2.0 2.0 0.00 0.00 0.00 79 1028.2
20260508205407 48 132 2.0 2.0 0.00 0.00 0.00 79 1028.3
20260508204903 48 125 2.0 2.0 0.00 0.00 0.00 80 1028.5
20260508204400 48 130 2.0 2.0 0.00 0.00 0.00 80 1028.3
20260508203856 48 104 1.0 2.0 0.00 0.00 0.00 81 1028.2
20260508203352 48 136 2.0 2.0 0.00 0.00 0.00 81 1028.3
20260508202848 48 107 1.0 1.0 0.00 0.00 0.00 80 1028.3
20260508202346 49 104 1.0 1.0 0.00 0.00 0.00 78 1028.2
20260508201843 50 111 1.0 1.0 0.00 0.00 0.00 77 1028.3
20260508201340 49 116 2.0 2.0 0.00 0.00 0.00 78 1028.5
20260508200836 48 108 1.0 2.0 0.00 0.00 0.00 82 1028.5
20260508200333 47 97 1.0 2.0 0.00 0.00 0.00 84 1028.3
20260508195828 48 61 2.0 2.0 0.00 0.00 0.00 82 1028.7
20260508195325 49 18 1.0 1.0 0.00 0.00 0.00 79 1028.5
20260508194822 50 357 1.0 1.0 0.00 0.00 0.00 77 1028.5
20260508194319 50 347 0.0 0.0 0.00 0.00 0.00 75 1028.5
20260508193810 51 347 1.0 1.0 0.00 0.00 0.00 73 1028.6
20260508193307 52 341 0.0 0.0 0.00 0.00 0.00 71 1028.3
20260508192803 52 334 0.0 0.0 0.00 0.00 0.00 71 1028.5
20260508192300 52 333 0.0 0.0 0.00 0.00 0.00 70 1028.3
20260508191757 52 334 0.0 0.0 0.00 0.00 0.00 70 1028.3
20260508191254 52 334 0.0 0.0 0.00 0.00 0.00 71 1028.3
20260508190752 51 334 0.0 0.0 0.00 0.00 0.00 71 1028.6
20260508190247 52 322 0.0 0.0 0.00 0.00 0.00 70 1028.2
20260508185744 53 302 0.0 1.0 0.00 0.00 0.00 70 1028.3
20260508185242 52 320 1.0 1.0 0.00 0.00 0.00 71 1028.3
20260508184739 51 333 0.0 0.0 0.00 0.00 0.00 72 1028.6
20260508184236 50 341 0.0 0.0 0.00 0.00 0.00 73 1028.3
20260508183732 51 341 0.0 0.0 0.00 0.00 0.00 72 1028.7
20260508183229 51 341 0.0 0.0 0.00 0.00 0.00 71 1028.5
20260508182725 51 341 0.0 0.0 0.00 0.00 0.00 71 1028.2
20260508182222 52 341 0.0 0.0 0.00 0.00 0.00 71 1028.2
20260508181718 52 341 0.0 0.0 0.00 0.00 0.00 71 1028.5
20260508181215 51 341 0.0 0.0 0.00 0.00 0.00 72 1028.3
20260508180712 51 341 0.0 0.0 0.00 0.00 0.00 72 1028.0
20260508180208 51 341 0.0 0.0 0.00 0.00 0.00 73 1027.9
20260508175705 51 341 0.0 0.0 0.00 0.00 0.00 73 1028.3
20260508175202 51 341 0.0 0.0 0.00 0.00 0.00 73 1028.1
20260508174700 52 341 0.0 0.0 0.00 0.00 0.00 72 1028.1
20260508174156 53 332 0.0 1.0 0.00 0.00 0.00 71 1028.1